KG4IFE-13 Weather Reports


time (UTC)temp
F
wind
direction
speed
knots
gust
knots
rain 1hr
in
rain 24hr
in
rain mn
in
humidity
%
barometer
mb
20260510162524 82 225 0.9 2.6 0.00 0.00 0.00 48 1016.2
20260510162023 82 225 0.9 2.6 0.00 0.00 0.00 48 1016.2
20260510161522 81 191 1.7 5.2 0.00 0.00 0.00 47 1016.0
20260510161020 81 191 1.7 5.2 0.00 0.00 0.00 47 1016.0
20260510160520 81 245 0.9 4.3 0.00 0.00 0.00 47 1016.2
20260510160019 81 245 0.9 4.3 0.00 0.00 0.00 47 1016.2
20260510155538 80 311 0.9 3.5 0.00 0.00 0.00 47 1016.2
20260510155018 80 311 0.9 3.5 0.00 0.00 0.00 47 1016.2
20260510154516 80 222 1.7 6.1 0.00 0.00 0.00 49 1016.4
20260510154034 80 222 1.7 6.1 0.00 0.00 0.00 49 1016.4
20260510153514 79 319 0.9 3.5 0.00 0.00 0.00 50 1016.3
20260510153013 78 243 0.9 3.5 0.00 0.00 0.00 50 1016.3
20260510152512 78 243 0.9 3.5 0.00 0.00 0.00 50 1016.3
20260510152011 77 270 0.9 3.5 0.00 0.00 0.00 52 1016.3
20260510151510 77 270 0.9 3.5 0.00 0.00 0.00 52 1016.3
20260510151008 76 303 1.7 3.5 0.00 0.00 0.00 52 1016.3
20260510150508 76 303 1.7 3.5 0.00 0.00 0.00 52 1016.3
20260510150007 76 344 0.9 3.5 0.00 0.00 0.00 54 1016.2
20260510145526 76 344 0.9 3.5 0.00 0.00 0.00 54 1016.2
20260510145006 75 357 0.9 1.7 0.00 0.00 0.00 55 1016.3
20260510144504 75 357 0.9 1.7 0.00 0.00 0.00 55 1016.3
20260510144003 74 270 0.9 2.6 0.00 0.00 0.00 55 1016.3
20260510143502 74 270 0.9 2.6 0.00 0.00 0.00 55 1016.3
20260510143000 73 270 0.9 3.5 0.00 0.00 0.00 56 1016.3
20260510142520 73 270 0.9 3.5 0.00 0.00 0.00 56 1016.3
20260510141959 73 270 0.9 0.9 0.00 0.00 0.00 58 1016.2
20260510141459 73 270 0.9 0.9 0.00 0.00 0.00 58 1016.2
20260510141019 72 45 0.9 3.5 0.00 0.00 0.00 60 1016.4
20260510140456 72 45 0.9 3.5 0.00 0.00 0.00 60 1016.4
20260510140017 71 153 0.9 3.5 0.00 0.00 0.00 61 1016.3
20260510135456 71 153 0.9 3.5 0.00 0.00 0.00 61 1016.3
20260510134953 70 229 0.9 1.7 0.00 0.00 0.00 62 1016.3
20260510134453 70 229 0.9 1.7 0.00 0.00 0.00 62 1016.3
20260510133950 70 229 0.9 1.7 0.00 0.00 0.00 62 1016.3
20260510133450 69 39 1.7 4.3 0.00 0.00 0.00 62 1016.3
20260510132950 69 39 1.7 4.3 0.00 0.00 0.00 62 1016.3
20260510132448 68 38 0.9 3.5 0.00 0.00 0.00 65 1016.3
20260510132008 68 38 0.9 3.5 0.00 0.00 0.00 65 1016.3
20260510131446 67 341 0.9 1.7 0.00 0.00 0.00 68 1016.2
20260510130945 67 341 0.9 1.7 0.00 0.00 0.00 68 1016.2
20260510130444 65 22 0.9 3.5 0.00 0.00 0.00 69 1016.0
20260510125944 65 22 0.9 3.5 0.00 0.00 0.00 69 1016.0
20260510125442 64 45 0.9 3.5 0.00 0.00 0.00 71 1016.0
20260510124943 64 45 0.9 3.5 0.00 0.00 0.00 71 1016.0
20260510124440 63 41 1.7 3.5 0.00 0.00 0.00 71 1015.9
20260510123941 63 41 1.7 3.5 0.00 0.00 0.00 71 1015.9
20260510123438 61 45 0.9 1.7 0.00 0.00 0.00 76 1015.8
20260510122937 61 45 0.9 1.7 0.00 0.00 0.00 76 1015.8
20260510122436 59 41 0.9 1.7 0.00 0.00 0.00 78 1015.7
20260510121937 59 41 0.9 1.7 0.00 0.00 0.00 78 1015.7
20260510121435 57 3 0.9 2.6 0.00 0.00 0.00 80 1015.7
20260510120934 57 3 0.9 2.6 0.00 0.00 0.00 80 1015.7
20260510120433 55 338 0.9 0.9 0.00 0.00 0.00 82 1015.7
20260510115951 55 338 0.9 0.9 0.00 0.00 0.00 82 1015.7
20260510115431 54 12 0.9 0.9 0.00 0.00 0.00 85 1015.5
20260510114929 54 12 0.9 0.9 0.00 0.00 0.00 85 1015.5
20260510114429 51 25 0.9 0.9 0.00 0.00 0.00 87 1015.4
20260510113927 51 25 0.9 0.9 0.00 0.00 0.00 87 1015.4
20260510113428 49 90 0.9 0.9 0.00 0.00 0.00 86 1015.3
20260510112925 49 90 0.9 0.9 0.00 0.00 0.00 86 1015.3
20260510112426 48 348 0.9 0.9 0.00 0.00 0.00 86 1015.2
20260510111922 48 348 0.9 0.9 0.00 0.00 0.00 86 1015.2
20260510111422 48 0.0 0.9 0.00 0.00 0.00 85 1015.0
20260510110941 48 0.0 0.9 0.00 0.00 0.00 85 1015.0
20260510110420 48 32 0.9 2.6 0.00 0.00 0.00 85 1014.7
20260510105919 48 32 0.9 2.6 0.00 0.00 0.00 85 1014.7
20260510105422 48 142 0.9 0.9 0.00 0.00 0.00 84 1014.7
20260510104917 48 142 0.9 0.9 0.00 0.00 0.00 84 1014.7
20260510104436 48 270 0.9 0.9 0.00 0.00 0.00 84 1014.6
20260510103915 48 270 0.9 0.9 0.00 0.00 0.00 84 1014.6
20260510103434 48 45 0.9 0.9 0.00 0.00 0.00 84 1014.4
20260510102913 48 45 0.9 0.9 0.00 0.00 0.00 84 1014.4
20260510102413 48 135 0.9 0.9 0.00 0.00 0.00 84 1014.3
20260510101910 48 135 0.9 0.9 0.00 0.00 0.00 84 1014.3
20260510101412 48 40 0.9 2.6 0.00 0.00 0.00 84 1014.2
20260510100911 48 40 0.9 2.6 0.00 0.00 0.00 84 1014.2
20260510100429 49 37 0.9 1.7 0.00 0.00 0.00 83 1014.1
20260510095908 49 37 0.9 1.7 0.00 0.00 0.00 83 1014.1
20260510095406 49 90 0.9 0.9 0.00 0.00 0.00 83 1014.2
20260510094927 49 90 0.9 0.9 0.00 0.00 0.00 83 1014.2
20260510094424 49 153 0.9 1.7 0.00 0.00 0.00 83 1014.0
20260510093905 49 153 0.9 1.7 0.00 0.00 0.00 83 1014.0
20260510093402 49 20 0.9 1.7 0.00 0.00 0.00 84 1013.9
20260510092901 49 20 0.9 1.7 0.00 0.00 0.00 84 1013.9
20260510092401 49 38 0.9 0.9 0.00 0.00 0.00 83 1013.8
20260510091859 49 38 0.9 0.9 0.00 0.00 0.00 83 1013.8
20260510091358 49 90 0.9 0.9 0.00 0.00 0.00 82 1013.7
20260510090857 49 90 0.9 0.9 0.00 0.00 0.00 82 1013.7
20260510090356 50 32 0.9 2.6 0.00 0.00 0.00 82 1013.6
20260510085857 50 32 0.9 2.6 0.00 0.00 0.00 82 1013.6
20260510085356 50 11 0.9 1.7 0.00 0.00 0.00 82 1013.6
20260510084912 50 11 0.9 1.7 0.00 0.00 0.00 82 1013.6
20260510084352 50 225 0.9 1.7 0.00 0.00 0.00 82 1013.6
20260510083851 50 225 0.9 1.7 0.00 0.00 0.00 82 1013.6
20260510083352 50 51 0.9 3.5 0.00 0.00 0.00 81 1013.7
20260510082849 50 51 0.9 3.5 0.00 0.00 0.00 81 1013.7
20260510082348 51 23 0.9 1.7 0.00 0.00 0.00 81 1013.6
20260510081849 51 23 0.9 1.7 0.00 0.00 0.00 81 1013.6
20260510081346 51 14 0.9 1.7 0.00 0.00 0.00 82 1013.3
20260510080846 51 14 0.9 1.7 0.00 0.00 0.00 82 1013.3
20260510080345 50 37 0.9 2.6 0.00 0.00 0.00 82 1013.1
20260510075904 50 37 0.9 2.6 0.00 0.00 0.00 82 1013.1
20260510075342 50 45 0.9 1.7 0.00 0.00 0.00 81 1012.9
20260510074841 50 45 0.9 1.7 0.00 0.00 0.00 81 1012.9
20260510074340 51 90 0.9 1.7 0.00 0.00 0.00 81 1013.0
20260510073839 51 90 0.9 1.7 0.00 0.00 0.00 81 1013.0
20260510073337 51 45 0.9 1.7 0.00 0.00 0.00 81 1013.0
20260510072837 51 45 0.9 1.7 0.00 0.00 0.00 81 1013.0
20260510072337 52 11 0.9 0.9 0.00 0.00 0.00 80 1013.0
20260510071855 52 11 0.9 0.9 0.00 0.00 0.00 80 1013.0
20260510071335 52 56 0.9 0.9 0.00 0.00 0.00 79 1012.9
20260510070855 52 56 0.9 0.9 0.00 0.00 0.00 79 1012.9
20260510070332 53 149 0.9 0.9 0.00 0.00 0.00 79 1012.9
20260510065851 53 149 0.9 0.9 0.00 0.00 0.00 79 1012.9
20260510065330 53 175 0.9 0.9 0.00 0.00 0.00 79 1013.0
20260510064849 53 175 0.9 0.9 0.00 0.00 0.00 79 1013.0
20260510064328 53 90 0.9 0.9 0.00 0.00 0.00 79 1013.0
20260510063829 53 90 0.9 0.9 0.00 0.00 0.00 79 1013.0
20260510063346 53 153 0.9 0.9 0.00 0.00 0.00 80 1013.1
20260510062847 53 153 0.9 0.9 0.00 0.00 0.00 80 1013.1
20260510062325 53 135 0.9 0.9 0.00 0.00 0.00 79 1013.2
20260510061825 53 135 0.9 0.9 0.00 0.00 0.00 79 1013.2
20260510061322 52 359 0.9 0.9 0.00 0.00 0.00 80 1013.2
20260510060821 52 359 0.9 0.9 0.00 0.00 0.00 80 1013.2
20260510060320 52 49 0.9 1.7 0.00 0.00 0.00 80 1013.3
20260510055819 52 49 0.9 1.7 0.00 0.00 0.00 80 1013.3
20260510055338 52 90 0.9 1.7 0.00 0.00 0.00 79 1013.3
20260510054819 52 90 0.9 1.7 0.00 0.00 0.00 79 1013.3
20260510054316 53 90 0.9 0.9 0.00 0.00 0.00 79 1013.2
20260510053816 53 90 0.9 0.9 0.00 0.00 0.00 79 1013.2
20260510053414 53 359 0.9 0.9 0.00 0.00 0.00 79 1013.2
20260510052814 53 359 0.9 0.9 0.00 0.00 0.00 79 1013.2
20260510052332 53 45 0.9 0.9 0.00 0.00 0.00 78 1013.3
20260510051855 53 45 0.9 0.9 0.00 0.00 0.00 78 1013.3
20260510051311 53 0.0 0.9 0.00 0.00 0.00 78 1013.3
20260510050830 53 0.0 0.9 0.00 0.00 0.00 78 1013.3
20260510050310 53 135 0.9 0.9 0.00 0.00 0.00 77 1013.3
20260510045807 53 135 0.9 0.9 0.00 0.00 0.00 77 1013.3
20260510045307 54 195 0.9 0.9 0.00 0.00 0.00 77 1013.2
20260510044805 54 195 0.9 0.9 0.00 0.00 0.00 77 1013.2
20260510044305 54 45 0.9 0.9 0.00 0.00 0.00 76 1013.2
20260510043804 54 45 0.9 0.9 0.00 0.00 0.00 76 1013.2
20260510043324 54 185 0.9 0.9 0.00 0.00 0.00 75 1013.3
20260510042823 54 185 0.9 0.9 0.00 0.00 0.00 75 1013.3
20260510042300 55 15 0.9 0.9 0.00 0.00 0.00 75 1013.1
20260510041802 55 15 0.9 0.9 0.00 0.00 0.00 75 1013.1
20260510041257 55 186 0.9 0.9 0.00 0.00 0.00 74 1013.2
20260510040800 55 186 0.9 0.9 0.00 0.00 0.00 74 1013.2
20260510040257 55 41 0.9 1.7 0.00 0.00 0.00 73 1013.2
20260510035756 55 41 0.9 1.7 0.00 0.00 0.00 73 1013.2
20260510035255 56 45 0.9 0.9 0.00 0.00 0.00 71 1013.1
20260510034753 56 45 0.9 0.9 0.00 0.00 0.00 71 1013.1
20260510034252 57 213 0.9 0.9 0.00 0.00 0.00 70 1013.0
20260510033752 57 213 0.9 0.9 0.00 0.00 0.00 70 1013.0
20260510033252 57 45 0.9 0.9 0.00 0.00 0.00 69 1012.8
20260510032808 57 45 0.9 0.9 0.00 0.00 0.00 69 1012.8
20260510032250 58 45 0.9 0.9 0.00 0.00 0.00 69 1012.9
20260510031749 58 45 0.9 0.9 0.00 0.00 0.00 69 1012.9
20260510031246 58 26 0.9 0.9 0.00 0.00 0.00 68 1012.8
20260510030745 58 26 0.9 0.9 0.00 0.00 0.00 68 1012.8
20260510030244 59 90 0.9 0.9 0.00 0.00 0.00 67 1012.8
20260510025745 59 90 0.9 0.9 0.00 0.00 0.00 67 1012.8
20260510025243 59 54 0.9 0.9 0.00 0.00 0.00 66 1012.6
20260510024742 59 54 0.9 0.9 0.00 0.00 0.00 66 1012.6
20260510024240 60 45 0.9 0.9 0.00 0.00 0.00 65 1012.6
20260510023739 60 45 0.9 0.9 0.00 0.00 0.00 65 1012.6
20260510023300 60 54 0.9 0.9 0.00 0.00 0.00 65 1012.5
20260510022757 60 54 0.9 0.9 0.00 0.00 0.00 65 1012.5
20260510022237 60 90 0.9 0.9 0.00 0.00 0.00 64 1012.4
20260510021735 60 90 0.9 0.9 0.00 0.00 0.00 64 1012.4
20260510021254 61 182 0.9 1.7 0.00 0.00 0.00 63 1012.2
20260510020733 61 182 0.9 1.7 0.00 0.00 0.00 63 1012.2
20260510020232 62 14 0.9 0.9 0.00 0.00 0.00 61 1012.0
20260510015752 62 14 0.9 0.9 0.00 0.00 0.00 61 1012.0
20260510015230 62 355 0.9 0.9 0.00 0.00 0.00 61 1011.9
20260510014731 62 355 0.9 0.9 0.00 0.00 0.00 61 1011.9
20260510014228 63 36 0.9 0.9 0.00 0.00 0.00 60 1011.6
20260510013727 63 36 0.9 0.9 0.00 0.00 0.00 60 1011.6
20260510013226 63 50 0.9 0.9 0.00 0.00 0.00 59 1011.5
20260510012725 63 50 0.9 0.9 0.00 0.00 0.00 59 1011.5
20260510012224 64 90 0.9 0.9 0.00 0.00 0.00 58 1011.4
20260510011726 64 90 0.9 0.9 0.00 0.00 0.00 58 1011.4
20260510011222 65 90 0.9 0.9 0.00 0.00 0.00 57 1011.3
20260510010721 65 90 0.9 0.9 0.00 0.00 0.00 57 1011.3
20260510010222 65 49 0.9 1.7 0.00 0.00 0.00 56 1011.2
20260510005741 65 49 0.9 1.7 0.00 0.00 0.00 56 1011.2
20260510005217 66 90 0.9 0.9 0.00 0.00 0.00 54 1011.1
20260510004717 66 90 0.9 0.9 0.00 0.00 0.00 54 1011.1
20260510004215 67 56 0.9 0.9 0.00 0.00 0.00 53 1011.1
20260510003716 67 56 0.9 0.9 0.00 0.00 0.00 53 1011.1
20260510003214 68 56 0.9 0.9 0.00 0.00 0.00 52 1011.1
20260510002713 68 56 0.9 0.9 0.00 0.00 0.00 52 1011.1
20260510002212 68 56 0.9 0.9 0.00 0.00 0.00 52 1011.1
20260510001712 69 45 0.9 0.9 0.00 0.00 0.00 51 1010.8
20260510001210 69 45 0.9 0.9 0.00 0.00 0.00 51 1010.8
20260510000731 70 90 0.9 1.7 0.00 0.00 0.00 50 1010.6
20260510000207 70 90 0.9 1.7 0.00 0.00 0.00 50 1010.6
20260509235706 71 21 0.9 1.7 0.00 0.00 0.00 49 1010.4
20260509235207 71 21 0.9 1.7 0.00 0.00 0.00 49 1010.4
20260509234705 71 36 0.9 0.9 0.00 0.00 0.00 49 1010.3
20260509234204 71 36 0.9 0.9 0.00 0.00 0.00 49 1010.3
20260509233703 72 303 0.9 2.6 0.00 0.00 0.00 48 1010.2
20260509233202 72 303 0.9 2.6 0.00 0.00 0.00 48 1010.2
20260509232701 73 302 0.9 2.6 0.00 0.00 0.00 47 1010.2
20260509232202 73 302 0.9 2.6 0.00 0.00 0.00 47 1010.2
20260509231659 73 295 0.9 3.5 0.00 0.00 0.00 46 1010.1
20260509231158 73 295 0.9 3.5 0.00 0.00 0.00 46 1010.1
20260509230657 74 308 0.9 1.7 0.00 0.00 0.00 45 1009.9
20260509230216 74 308 0.9 1.7 0.00 0.00 0.00 45 1009.9
20260509225655 74 344 0.9 3.5 0.00 0.00 0.00 47 1010.0
20260509225214 74 344 0.9 3.5 0.00 0.00 0.00 47 1010.0
20260509224652 73 333 0.9 2.6 0.00 0.00 0.00 48 1010.0
20260509224151 73 333 0.9 2.6 0.00 0.00 0.00 48 1010.0
20260509223651 74 270 0.9 1.7 0.00 0.00 0.00 48 1010.0
20260509223211 74 270 0.9 1.7 0.00 0.00 0.00 48 1010.0
20260509222649 74 344 0.9 0.9 0.00 0.00 0.00 49 1010.0
20260509222148 74 344 0.9 0.9 0.00 0.00 0.00 49 1010.0
20260509221647 74 15 0.9 1.7 0.00 0.00 0.00 48 1009.9
20260509221227 74 15 0.9 1.7 0.00 0.00 0.00 48 1009.9
20260509220646 74 315 0.9 3.5 0.00 0.00 0.00 48 1009.9
20260509220145 74 315 0.9 3.5 0.00 0.00 0.00 48 1009.9
20260509215644 74 0 0.9 1.7 0.00 0.00 0.00 48 1009.8
20260509215142 74 0 0.9 1.7 0.00 0.00 0.00 48 1009.8
20260509214701 75 214 0.9 3.5 0.00 0.00 0.00 47 1009.8
20260509214142 75 214 0.9 3.5 0.00 0.00 0.00 47 1009.8
20260509213639 75 315 0.9 1.7 0.00 0.00 0.00 46 1009.6
20260509213139 75 315 0.9 1.7 0.00 0.00 0.00 46 1009.6
20260509212636 75 348 0.9 2.6 0.00 0.00 0.00 46 1009.5
20260509212135 75 348 0.9 2.6 0.00 0.00 0.00 46 1009.5
20260509211634 76 270 0.9 3.5 0.00 0.00 0.00 45 1009.4
20260509211133 76 270 0.9 3.5 0.00 0.00 0.00 45 1009.4
20260509210632 76 270 0.9 3.5 0.00 0.00 0.00 45 1009.5
20260509210131 76 270 0.9 3.5 0.00 0.00 0.00 45 1009.5
20260509205630 77 169 0.9 2.6 0.00 0.00 0.00 43 1009.3
20260509205130 77 169 0.9 2.6 0.00 0.00 0.00 43 1009.3
20260509204629 79 184 1.7 6.1 0.00 0.00 0.00 43 1009.3
20260509204126 79 184 1.7 6.1 0.00 0.00 0.00 43 1009.3
20260509203626 79 270 0.9 6.1 0.00 0.00 0.00 43 1009.4
20260509203126 79 270 0.9 6.1 0.00 0.00 0.00 43 1009.4
20260509202644 80 326 0.9 3.5 0.00 0.00 0.00 42 1009.3
20260509202123 80 326 0.9 3.5 0.00 0.00 0.00 42 1009.3
20260509201703 80 187 0.9 4.3 0.00 0.00 0.00 44 1009.3
20260509201123 80 187 0.9 4.3 0.00 0.00 0.00 44 1009.3
20260509200620 78 251 0.9 3.5 0.00 0.00 0.00 46 1009.3
20260509200119 78 251 0.9 3.5 0.00 0.00 0.00 46 1009.3
20260509195618 77 315 0.9 2.6 0.00 0.00 0.00 46 1009.4
20260509195117 77 315 0.9 2.6 0.00 0.00 0.00 46 1009.4
20260509194616 77 239 0.9 2.6 0.00 0.00 0.00 47 1009.2
20260509194117 77 239 0.9 2.6 0.00 0.00 0.00 47 1009.2
20260509193616 77 182 0.9 4.3 0.00 0.00 0.00 47 1009.3
20260509193113 77 182 0.9 4.3 0.00 0.00 0.00 47 1009.3
20260509192634 78 215 0.9 3.5 0.00 0.00 0.00 45 1009.4
20260509192112 78 215 0.9 3.5 0.00 0.00 0.00 45 1009.4
20260509191610 79 270 0.9 3.5 0.00 0.00 0.00 47 1009.4
20260509191110 79 270 0.9 3.5 0.00 0.00 0.00 47 1009.4
20260509190630 78 197 1.7 3.5 0.00 0.00 0.00 47 1009.5
20260509190109 78 197 1.7 3.5 0.00 0.00 0.00 47 1009.5
20260509185606 77 225 0.9 4.3 0.00 0.00 0.00 51 1009.6
20260509185106 77 225 0.9 4.3 0.00 0.00 0.00 51 1009.6
20260509184607 76 124 0.9 4.3 0.00 0.00 0.00 52 1009.6
20260509184125 76 124 0.9 4.3 0.00 0.00 0.00 52 1009.6
20260509183602 75 60 0.9 3.5 0.00 0.00 0.00 52 1009.7
20260509183100 75 60 0.9 3.5 0.00 0.00 0.00 52 1009.7
20260509182600 76 188 1.7 4.3 0.00 0.00 0.00 54 1009.9
20260509182059 76 188 1.7 4.3 0.00 0.00 0.00 54 1009.9
20260509181600 75 175 3.5 7.0 0.00 0.00 0.00 55 1010.0
20260509181057 75 175 3.5 7.0 0.00 0.00 0.00 55 1010.0
20260509180556 73 163 1.7 3.5 0.00 0.00 0.00 57 1010.2
20260509180057 73 163 1.7 3.5 0.00 0.00 0.00 57 1010.2
20260509175555 73 233 0.9 2.6 0.00 0.00 0.00 57 1010.3
20260509175053 73 233 0.9 2.6 0.00 0.00 0.00 57 1010.3
20260509174551 73 220 0.9 3.5 0.00 0.00 0.00 57 1010.3
20260509174112 73 220 0.9 3.5 0.00 0.00 0.00 57 1010.3
20260509173550 73 57 1.7 5.2 0.00 0.00 0.00 60 1010.4
20260509173051 73 57 1.7 5.2 0.00 0.00 0.00 60 1010.4
20260509172549 71 63 0.9 3.5 0.00 0.00 0.00 61 1010.5
20260509172046 71 63 0.9 3.5 0.00 0.00 0.00 61 1010.5
20260509171546 70 270 0.9 0.9 0.00 0.00 0.00 62 1010.8
20260509171045 70 270 0.9 0.9 0.00 0.00 0.00 62 1010.8
20260509170547 70 270 0.9 1.7 0.00 0.00 0.00 60 1010.9
20260509170104 70 270 0.9 1.7 0.00 0.00 0.00 60 1010.9
20260509165542 71 45 0.9 3.5 0.00 0.00 0.00 59 1010.9
20260509165040 71 45 0.9 3.5 0.00 0.00 0.00 59 1010.9
20260509164540 71 138 1.7 3.5 0.00 0.00 0.00 62 1011.0
20260509164039 71 138 1.7 3.5 0.00 0.00 0.00 62 1011.0
20260509163539 70 196 2.6 6.1 0.00 0.00 0.00 61 1011.1
20260509163037 70 196 2.6 6.1 0.00 0.00 0.00 61 1011.1